{"data":{"norad_id":68151,"epoch":"2026-05-25T01:37:37.752384Z","epoch_age_seconds":83267,"freshness":"FRESH","line1":"1 68151U 26049K   26145.06779806  .00020225  00000+0  62664-3 0  9990","line2":"2 68151  97.2849 166.7422 0000971 116.8614 243.2728 15.33469650 11354","mean_motion":15.3346965,"eccentricity":9.71e-5,"inclination_deg":97.2849,"raan_deg":166.7422,"arg_perigee_deg":116.8614,"mean_anomaly_deg":243.2728,"bstar":0.00062664,"rev_number":1135,"period_min":93.904695146722,"perigee_km":464.80532017971,"apogee_km":466.13434862695,"semimajor_km":6843.6068344033,"source":"CELESTRAK","updated_at":"2026-05-25T13:38:21.848202Z"}}